[[{"header":{"parameterUnit":"m.s-1","parameterCategory":1,"la1":30.2991,"la2":30.254,"lo1":-89.0895,"lo2":-89.0444,"dy":0.0017,"dx":0.0017,"nx":28,"ny":28,"refTime":"2025-11-25T09:00:00:Z","depth":0,"parameterNumber":2,"parameterNumberName":"U-component_of_WINDS"},"data":[0,0,0,0,0,0,0,0,0,0,0,0,0,0,0,0,0,0,0,0,0,0,0,0,0,0,0,0,0,0,0,0,0,0,0,0,0,0,0,0,0,0,0,0,0,0,0,0,0,0,0,0,0,0,0,0,0,0,1.3484,1.3484,0,1.3506,1.3506,1.3507,1.351,1.3509,1.3509,1.3509,1.3532,1.3532,1.3533,0,0,0,0,0,0,0,0,0,0,0,0,0,1.3445,1.3446,1.3484,1.3484,1.3484,1.3506,1.3506,1.3507,1.351,1.3509,1.3509,1.3509,1.3531,1.3532,1.3533,0,0,0,0,0,0,0,0,0,0,0,0,0,1.3464,1.3446,1.3484,1.3488,1.3489,1.3506,1.3506,1.3507,1.351,1.3509,1.3509,1.3509,1.3531,1.3532,1.3533,1.3547,0,0,1.3537,1.3538,0,0,0,0,0,0,0,0,1.3463,1.3466,1.3488,1.3488,1.3489,1.3505,1.3501,1.352,1.351,1.3502,1.3509,1.3508,1.3523,1.3525,1.353,1.3548,1.3549,1.3537,1.3538,1.3538,1.3539,0,0,0,0,0,0,0,1.3462,1.3465,1.3493,1.3488,1.3489,1.349,1.3492,1.3505,1.3514,1.3502,1.3503,1.3505,1.3523,1.3529,1.353,1.355,1.3537,1.3538,1.3539,1.354,1.3583,1.3583,0,0,0,0,0,0,1.346,1.3464,1.3492,1.3493,1.3475,1.3491,1.3493,1.35,1.3514,1.3516,1.3506,1.3505,1.3527,1.3529,1.3531,1.3549,1.3538,1.354,1.354,1.3582,1.3583,1.3583,0,0,0,0,0,0,1.3459,1.3462,1.3491,1.3479,1.3482,1.3492,1.3499,1.3501,1.3506,1.3516,1.3518,1.3509,1.3526,1.3529,1.3544,1.355,1.354,1.3541,1.3582,1.3583,1.3583,1.3585,0,0,0,0,0,0,1.3458,1.3462,1.3467,1.3479,1.3483,1.3503,1.35,1.3501,1.3508,1.3508,1.352,1.3522,1.3526,1.3542,1.3545,1.3551,1.3542,1.3581,1.3582,1.3583,1.3584,1.3585,1.3586,0,0,0,0,0,1.3456,1.3466,1.3467,1.347,1.3489,1.3503,1.3506,1.3511,1.3508,1.3514,1.3521,1.3521,1.3549,1.3543,1.3547,1.3554,1.3581,1.3582,1.3583,1.3584,1.3585,1.3586,0,0,0,0,0,0,1.3454,1.3467,1.3469,1.3482,1.3492,1.3504,1.351,1.3512,1.3522,1.3522,1.3528,1.3531,1.3545,1.3551,1.3544,1.3569,1.3565,1.3566,1.3564,1.3566,1.3567,1.3565,1.3543,0,0,0,0,0,1.3455,1.3465,1.3476,1.3487,1.3492,1.3501,1.3507,1.351,1.352,1.3524,1.3532,1.3541,1.3553,1.3559,1.357,1.3585,1.3589,1.3592,1.3593,1.3594,1.3595,1.3605,1.3607,1.3586,1.3586,1.3586,0,0,1.3457,1.3466,1.3472,1.3487,1.3495,1.3505,1.3504,1.3515,1.3523,1.3526,1.354,1.3546,1.3557,1.3573,1.358,1.3578,1.3602,1.3595,1.3596,1.3597,1.3606,1.3608,1.361,1.3587,1.3587,1.3587,0,0,1.3467,1.3474,1.3485,1.3493,1.3504,1.351,1.3513,1.3525,1.353,1.3544,1.3547,1.3557,1.3575,1.3584,1.359,1.3605,1.3607,1.3609,1.3614,1.3624,1.3625,1.3627,1.3633,1.3635,1.361,1.361,1.361,0,1.3468,1.3484,1.349,1.3501,1.3508,1.3512,1.3523,1.3531,1.3545,1.3551,1.3549,1.3573,1.3581,1.3599,1.3603,1.3608,1.3612,1.3607,1.3625,1.3626,1.3628,1.3633,1.3636,1.361,1.361,1.361,1.361,0,1.3485,1.3496,1.3503,1.3518,1.3526,1.3537,1.3546,1.3553,1.3557,1.3563,1.3579,1.3589,1.3602,1.3607,1.361,1.3625,1.3624,1.3623,1.3619,1.363,1.3635,1.3637,1.3611,1.3611,1.3611,1.361,0,0,1.3492,1.3511,1.3514,1.3521,1.3535,1.3544,1.3556,1.357,1.3576,1.3587,1.3598,1.3614,1.3614,1.3622,1.3626,1.3635,1.3647,1.3633,1.3634,1.3636,1.3666,1.3666,1.3668,1.3648,1.3649,1.3649,1.3665,0,1.3503,1.3524,1.3531,1.3549,1.356,1.3565,1.3576,1.3586,1.3593,1.3604,1.3611,1.3623,1.3622,1.3627,1.3635,1.3644,1.3653,1.3643,1.3659,1.3659,1.3655,1.3671,1.3671,1.3686,1.3667,1.3668,1.3668,0,1.3519,1.353,1.3549,1.3564,1.3568,1.3578,1.3591,1.3601,1.3614,1.3618,1.3628,1.3632,1.3646,1.3642,1.3661,1.3654,1.3661,1.3667,1.3667,1.3669,1.3664,1.3673,1.369,1.3692,1.3671,1.3671,1.3671,0,1.3522,1.3543,1.3557,1.3563,1.358,1.3587,1.3594,1.3606,1.3614,1.3626,1.3632,1.3646,1.3653,1.3664,1.3672,1.3668,1.3691,1.3687,1.3696,1.3695,1.37,1.3699,1.3718,1.3705,1.3705,1.3705,1.3704,0,1.3534,1.3546,1.3559,1.3568,1.3581,1.359,1.3603,1.3611,1.3622,1.3633,1.3638,1.3649,1.3659,1.3671,1.3677,1.3693,1.3696,1.3701,1.3702,1.37,1.37,1.3705,1.3704,1.3705,1.3705,1.3705,1.3705,0,1.354,1.3549,1.3565,1.3581,1.3585,1.3594,1.3608,1.3617,1.3625,1.3639,1.3642,1.3655,1.3669,1.3679,1.3697,1.3701,1.3719,1.372,1.3714,1.3715,1.3723,1.3722,1.3745,1.3749,1.3733,1.3733,1.3733,0,1.3547,1.3556,1.3572,1.358,1.3588,1.36,1.3609,1.3618,1.3627,1.3643,1.3651,1.3666,1.3678,1.3701,1.3712,1.3726,1.3728,1.3735,1.373,1.3728,1.3728,1.3728,1.3729,1.3736,1.3736,1.3736,1.3736,0,1.3558,1.3562,1.3574,1.3589,1.3599,1.3611,1.3622,1.3629,1.364,1.365,1.3665,1.3675,1.3694,1.3709,1.3725,1.3734,1.3737,1.3738,1.3741,1.3738,1.3735,1.3737,1.3717,1.3737,1.3737,1.3737,1.3737,1.3737,1.3564,1.3573,1.3587,1.3601,1.3611,1.3622,1.3631,1.3641,1.3654,1.367,1.3675,1.3691,1.3705,1.3727,1.3736,1.3749,1.3748,1.3752,1.3753,1.3753,1.3754,1.3733,1.3752,1.3752,1.3752,1.3752,1.3752,0,1.3576,1.3585,1.3598,1.3615,1.3626,1.3629,1.3642,1.3652,1.3665,1.3678,1.3691,1.3709,1.3724,1.3737,1.3752,1.3761,1.3763,1.3764,1.3764,1.3766,1.3753,1.3749,1.3762,1.3762,1.3762,1.3762,1.3762,1.3762,1.3583,1.3599,1.3605,1.3626,1.3636,1.3651,1.3659,1.367,1.368,1.37,1.3713,1.3721,1.3734,1.3751,1.3766,1.3769,1.3775,1.3776,1.378,1.3768,1.3767,1.3765,1.3762,1.3777,1.3777,1.3791,1.3792,1.3792]},{"header":{"parameterUnit":"m.s-1","parameterCategory":1,"la1":30.2991,"la2":30.254,"lo1":-89.0895,"lo2":-89.0444,"dy":0.0017,"dx":0.0017,"nx":28,"ny":28,"refTime":"2025-11-25T09:00:00:Z","depth":0,"parameterNumber":3,"parameterNumberName":"V-component_of_WINDS"},"data":[0,0,0,0,0,0,0,0,0,0,0,0,0,0,0,0,0,0,0,0,0,0,0,0,0,0,0,0,0,0,0,0,0,0,0,0,0,0,0,0,0,0,0,0,0,0,0,0,0,0,0,0,0,0,0,0,0,0,-7.1394,-7.1395,0,-7.153,-7.1532,-7.1533,-7.1491,-7.1488,-7.1485,-7.1483,-7.1615,-7.1621,-7.1627,0,0,0,0,0,0,0,0,0,0,0,0,0,-7.1089,-7.1095,-7.1394,-7.1395,-7.1397,-7.153,-7.1532,-7.1534,-7.1492,-7.1488,-7.1485,-7.1481,-7.1613,-7.162,-7.1627,0,0,0,0,0,0,0,0,0,0,0,0,0,-7.1223,-7.1097,-7.1393,-7.1392,-7.1394,-7.153,-7.1532,-7.1534,-7.1492,-7.1488,-7.1484,-7.148,-7.161,-7.1619,-7.1629,-7.1772,0,0,-7.1657,-7.1661,0,0,0,0,0,0,0,0,-7.1216,-7.1234,-7.1391,-7.1393,-7.1394,-7.149,-7.1473,-7.1614,-7.1493,-7.1455,-7.1483,-7.1478,-7.1576,-7.1588,-7.1623,-7.1778,-7.1784,-7.1658,-7.1663,-7.1667,-7.167,0,0,0,0,0,0,0,-7.1206,-7.1228,-7.1447,-7.1393,-7.1395,-7.1383,-7.1397,-7.15,-7.1537,-7.1458,-7.1455,-7.1472,-7.1576,-7.1614,-7.1625,-7.1785,-7.1657,-7.1666,-7.1671,-7.1675,-7.2065,-7.2069,0,0,0,0,0,0,-7.1197,-7.1221,-7.1443,-7.1452,-7.1293,-7.1392,-7.1408,-7.1463,-7.1536,-7.1543,-7.1476,-7.147,-7.16,-7.1615,-7.163,-7.1802,-7.1667,-7.1676,-7.1681,-7.206,-7.2066,-7.2071,0,0,0,0,0,0,-7.1191,-7.1217,-7.1438,-7.1336,-7.1363,-7.1402,-7.1464,-7.1468,-7.1506,-7.155,-7.1556,-7.1508,-7.1597,-7.1617,-7.1737,-7.1806,-7.168,-7.1689,-7.2054,-7.2062,-7.2068,-7.2148,0,0,0,0,0,0,-7.1182,-7.1215,-7.1271,-7.1337,-7.1368,-7.1545,-7.1468,-7.1474,-7.1523,-7.1516,-7.1582,-7.1588,-7.1595,-7.1724,-7.1747,-7.1817,-7.1696,-7.2048,-7.2058,-7.2066,-7.2139,-7.2157,-7.2172,0,0,0,0,0,-7.1171,-7.1287,-7.1275,-7.1302,-7.144,-7.1549,-7.1567,-7.1575,-7.1529,-7.1584,-7.1613,-7.1586,-7.1796,-7.1736,-7.1762,-7.1836,-7.2044,-7.2055,-7.2065,-7.2132,-7.2154,-7.2172,0,0,0,0,0,0,-7.1225,-7.1295,-7.1282,-7.1423,-7.1481,-7.1542,-7.1612,-7.1597,-7.1667,-7.1658,-7.1663,-7.1678,-7.1801,-7.183,-7.1764,-7.1978,-7.1912,-7.1929,-7.1954,-7.1975,-7.1991,-7.1981,-7.1703,0,0,0,0,0,-7.1254,-7.1339,-7.1395,-7.1513,-7.1543,-7.1573,-7.1621,-7.1623,-7.1681,-7.1705,-7.1742,-7.1798,-7.1876,-7.1927,-7.2002,-7.2144,-7.2157,-7.2207,-7.2224,-7.2237,-7.225,-7.2327,-7.235,-7.2106,-7.2106,-7.2106,0,0,-7.1312,-7.1361,-7.1414,-7.1525,-7.157,-7.1656,-7.1594,-7.1687,-7.175,-7.1718,-7.1835,-7.1864,-7.1927,-7.2059,-7.2119,-7.2087,-7.2321,-7.2251,-7.2261,-7.2267,-7.2341,-7.2364,-7.2384,-7.2114,-7.2112,-7.2111,0,0,-7.1464,-7.151,-7.1614,-7.1661,-7.1731,-7.1751,-7.1776,-7.184,-7.1859,-7.1977,-7.1955,-7.2029,-7.2164,-7.221,-7.2251,-7.2422,-7.2399,-7.2446,-7.2531,-7.2606,-7.2625,-7.2642,-7.2702,-7.2723,-7.2459,-7.246,-7.246,0,-7.1527,-7.1658,-7.1669,-7.1765,-7.1814,-7.1792,-7.1896,-7.1941,-7.203,-7.2064,-7.2028,-7.2198,-7.2238,-7.238,-7.2422,-7.2457,-7.2484,-7.2437,-7.2622,-7.2639,-7.2655,-7.2712,-7.2735,-7.2465,-7.2464,-7.2464,-7.2463,0,-7.1733,-7.1824,-7.1899,-7.199,-7.2047,-7.2147,-7.217,-7.2227,-7.2224,-7.2247,-7.2367,-7.2416,-7.25,-7.2534,-7.2531,-7.2676,-7.2654,-7.262,-7.2554,-7.2683,-7.2737,-7.2759,-7.2472,-7.247,-7.2469,-7.2467,0,0,-7.1919,-7.2017,-7.2044,-7.2085,-7.2162,-7.2231,-7.2329,-7.2415,-7.2463,-7.2525,-7.2607,-7.2723,-7.2692,-7.2739,-7.2741,-7.2807,-7.2938,-7.2764,-7.2766,-7.2794,-7.31,-7.3125,-7.315,-7.2925,-7.2929,-7.2932,-7.3095,0,-7.2076,-7.2252,-7.2265,-7.2423,-7.2507,-7.2488,-7.2574,-7.2629,-7.2653,-7.2726,-7.2751,-7.2833,-7.2788,-7.2816,-7.288,-7.2909,-7.2999,-7.2897,-7.2998,-7.3002,-7.2982,-7.3178,-7.3204,-7.3355,-7.3116,-7.3119,-7.3122,0,-7.2283,-7.2355,-7.2522,-7.2588,-7.2624,-7.2701,-7.278,-7.2851,-7.2913,-7.2925,-7.2979,-7.2972,-7.3071,-7.3003,-7.3138,-7.3069,-7.3111,-7.3131,-7.3137,-7.3145,-7.3069,-7.3191,-7.3403,-7.3425,-7.3155,-7.3153,-7.315,0,-7.2401,-7.254,-7.2658,-7.2694,-7.2774,-7.2829,-7.2864,-7.2922,-7.2973,-7.3041,-7.3074,-7.3152,-7.3195,-7.3255,-7.3269,-7.3218,-7.3404,-7.3337,-7.3415,-7.3415,-7.3454,-7.3451,-7.3675,-7.3483,-7.3483,-7.3482,-7.3482,0,-7.2574,-7.2677,-7.2713,-7.2785,-7.2899,-7.2913,-7.3025,-7.3056,-7.3108,-7.3185,-7.3173,-7.3244,-7.3259,-7.3333,-7.3345,-7.3455,-7.3474,-7.3486,-7.3487,-7.3486,-7.3485,-7.3512,-7.3502,-7.3489,-7.3487,-7.3486,-7.3485,0,-7.2725,-7.2754,-7.2881,-7.2948,-7.2967,-7.3048,-7.3103,-7.3172,-7.3196,-7.3293,-7.3316,-7.3352,-7.3439,-7.346,-7.3562,-7.357,-7.37,-7.3692,-7.368,-7.3679,-7.3756,-7.3748,-7.4004,-7.4038,-7.3826,-7.3828,-7.383,0,-7.2833,-7.2912,-7.2988,-7.304,-7.3079,-7.3163,-7.3215,-7.3231,-7.3286,-7.3364,-7.3423,-7.3509,-7.3578,-7.3718,-7.3751,-7.383,-7.3822,-7.3907,-7.3834,-7.3831,-7.3822,-7.3817,-7.3825,-7.392,-7.3923,-7.3924,-7.3926,0,-7.3021,-7.3032,-7.311,-7.3194,-7.3258,-7.3324,-7.3386,-7.3429,-7.3453,-7.3515,-7.3606,-7.366,-7.3767,-7.3852,-7.3931,-7.3964,-7.3949,-7.3949,-7.3971,-7.397,-7.396,-7.3966,-7.3717,-7.3943,-7.3941,-7.394,-7.3939,-7.3938,-7.3153,-7.3223,-7.3288,-7.3375,-7.3425,-7.3484,-7.3552,-7.3586,-7.3663,-7.3753,-7.3757,-7.3855,-7.3915,-7.402,-7.4059,-7.4134,-7.4107,-7.414,-7.4147,-7.4155,-7.4162,-7.395,-7.4148,-7.4148,-7.4147,-7.4147,-7.4147,0,-7.334,-7.3382,-7.3462,-7.3552,-7.3621,-7.3604,-7.3673,-7.373,-7.3818,-7.3876,-7.3946,-7.405,-7.4133,-7.4175,-7.4256,-7.4309,-7.4304,-7.4329,-7.4325,-7.4332,-7.4181,-7.4153,-7.4332,-7.4332,-7.4332,-7.4332,-7.4332,-7.4332,-7.3445,-7.3563,-7.3581,-7.3722,-7.3763,-7.3861,-7.3902,-7.3956,-7.4003,-7.412,-7.419,-7.4218,-7.427,-7.4355,-7.443,-7.444,-7.447,-7.4499,-7.4505,-7.4362,-7.4343,-7.4325,-7.4299,-7.4506,-7.4506,-7.465,-7.4652,-7.4653]}]]